Location: Cudham
(51.3000°N, 0.0667°E)
Time: 05:26:55
(UTC+00:00)

DELTA 2 DEB (DPAF) - Pass Details

Date: 19 May 2025
Orbit: 539 x 548 km, 98.4° (Epoch: 13 June)

Event Time Altitude Azimuth Distance (km) Brightness Sun altitude
Rises 22:28:22 0° 12° (NNE) 2,741 8.4 -16.2°
Reaches altitude 10° 22:30:31 10° 10° (N) 1,838 7.4 -16.3°
Maximum altitude 22:34:27 65° 289° (WNW) 610 4.1 -16.5°
Enters shadow 22:36:59 21° 211° (SSW) 1,269 5.3 -16.6°
